| time (UTC) | temp C | wind direction | speed KPH | gust KPH | rain 1hr cm | rain 24hr cm | rain mn cm | humidity % | barometer mb |
| 20260508044021 | 16 | 37 | 3.2 | 3.2 | 0.00 | 0.00 | 0.00 | 61 | 1017.0 |
| 20260508043521 | 16 | 37 | 3.2 | 3.2 | 0.00 | 0.00 | 0.00 | 60 | 1016.9 |
| 20260508043019 | 16 | 37 | 3.2 | 3.2 | 0.00 | 0.00 | 0.00 | 60 | 1016.8 |
| 20260508042519 | 16 | 37 | 1.6 | 3.2 | 0.00 | 0.00 | 0.00 | 60 | 1016.8 |
| 20260508042018 | 16 | 36 | 1.6 | 3.2 | 0.00 | 0.00 | 0.00 | 60 | 1016.8 |
| 20260508041519 | 16 | 36 | 1.6 | 3.2 | 0.00 | 0.00 | 0.00 | 60 | 1016.7 |
| 20260508041018 | 16 | 36 | 1.6 | 3.2 | 0.00 | 0.00 | 0.00 | 60 | 1016.7 |
| 20260508040519 | 16 | 36 | 1.6 | 3.2 | 0.00 | 0.00 | 0.00 | 60 | 1016.6 |
| 20260508040018 | 16 | 36 | 1.6 | 3.2 | 0.00 | 0.00 | 0.00 | 60 | 1016.5 |
| 20260508035521 | 16 | 36 | 1.6 | 3.2 | 0.00 | 0.00 | 0.00 | 60 | 1016.5 |
| 20260508035018 | 17 | 36 | 1.6 | 3.2 | 0.00 | 0.00 | 0.00 | 60 | 1016.4 |
| 20260508034518 | 17 | 35 | 1.6 | 3.2 | 0.00 | 0.00 | 0.00 | 60 | 1016.4 |
| 20260508034018 | 17 | 37 | 1.6 | 3.2 | 0.00 | 0.00 | 0.00 | 59 | 1016.3 |
| 20260508033516 | 17 | 34 | 1.6 | 3.2 | 0.00 | 0.00 | 0.00 | 59 | 1016.3 |
| 20260508033018 | 17 | 34 | 1.6 | 3.2 | 0.00 | 0.00 | 0.00 | 59 | 1016.2 |
| 20260508032517 | 17 | 34 | 1.6 | 3.2 | 0.00 | 0.00 | 0.00 | 59 | 1016.2 |
| 20260508032016 | 17 | 34 | 1.6 | 3.2 | 0.00 | 0.00 | 0.00 | 59 | 1016.1 |
| 20260508031517 | 17 | 34 | 1.6 | 3.2 | 0.00 | 0.00 | 0.00 | 59 | 1016.1 |
| 20260508031016 | 17 | 34 | 1.6 | 3.2 | 0.00 | 0.00 | 0.00 | 58 | 1015.9 |
| 20260508030517 | 17 | 34 | 1.6 | 3.2 | 0.00 | 0.00 | 0.00 | 58 | 1016.0 |
| 20260508030016 | 17 | 30 | 1.6 | 3.2 | 0.00 | 0.00 | 0.00 | 58 | 1015.9 |
| 20260508025515 | 17 | 29 | 1.6 | 3.2 | 0.00 | 0.00 | 0.00 | 58 | 1016.0 |
| 20260508025015 | 18 | 29 | 1.6 | 3.2 | 0.00 | 0.00 | 0.00 | 58 | 1016.0 |
| 20260508024524 | 18 | 29 | 0.0 | 3.2 | 0.00 | 0.00 | 0.00 | 57 | 1015.8 |
| 20260508024015 | 18 | 29 | 0.0 | 1.6 | 0.00 | 0.00 | 0.00 | 56 | 1015.7 |
| 20260508023514 | 18 | 29 | 0.0 | 1.6 | 0.00 | 0.00 | 0.00 | 55 | 1015.7 |
| 20260508023018 | 18 | 29 | 1.6 | 3.2 | 0.00 | 0.00 | 0.00 | 55 | 1015.7 |
| 20260508022513 | 19 | 28 | 1.6 | 3.2 | 0.00 | 0.00 | 0.00 | 54 | 1015.7 |
| 20260508022015 | 19 | 11 | 0.0 | 1.6 | 0.00 | 0.00 | 0.00 | 54 | 1015.5 |
| 20260508021515 | 20 | 259 | 0.0 | 1.6 | 0.00 | 0.00 | 0.00 | 52 | 1015.6 |
| 20260508021013 | 20 | 256 | 0.0 | 0.0 | 0.00 | 0.00 | 0.00 | 50 | 1015.7 |
| 20260508020512 | 21 | 256 | 0.0 | 1.6 | 0.00 | 0.00 | 0.00 | 49 | 1015.6 |
| 20260508020015 | 21 | 256 | 0.0 | 1.6 | 0.00 | 0.00 | 0.00 | 47 | 1015.7 |
| 20260508015515 | 21 | 252 | 0.0 | 3.2 | 0.00 | 0.00 | 0.00 | 47 | 1015.7 |
| 20260508015012 | 21 | 250 | 0.0 | 3.2 | 0.00 | 0.00 | 0.00 | 47 | 1015.7 |
| 20260508014512 | 21 | 251 | 0.0 | 3.2 | 0.00 | 0.00 | 0.00 | 48 | 1015.6 |
| 20260508014012 | 21 | 261 | 0.0 | 6.4 | 0.00 | 0.00 | 0.00 | 47 | 1015.5 |
| 20260508013511 | 21 | 260 | 1.6 | 6.4 | 0.00 | 0.00 | 0.00 | 46 | 1015.7 |
| 20260508013010 | 21 | 162 | 0.0 | 6.4 | 0.00 | 0.00 | 0.00 | 47 | 1015.5 |
| 20260508012513 | 22 | 252 | 0.0 | 6.4 | 0.00 | 0.00 | 0.00 | 46 | 1015.5 |
| 20260508012009 | 22 | 252 | 0.0 | 6.4 | 0.00 | 0.00 | 0.00 | 45 | 1015.4 |
| 20260508011508 | 22 | 267 | 1.6 | 6.4 | 0.00 | 0.00 | 0.00 | 45 | 1015.5 |
| 20260508011008 | 22 | 246 | 0.0 | 3.2 | 0.00 | 0.00 | 0.00 | 46 | 1015.5 |
| 20260508010508 | 22 | 250 | 0.0 | 6.4 | 0.00 | 0.00 | 0.00 | 45 | 1015.5 |
| 20260508010007 | 22 | 252 | 0.0 | 6.4 | 0.00 | 0.00 | 0.00 | 45 | 1015.4 |
| 20260508005513 | 22 | 255 | 0.0 | 4.8 | 0.00 | 0.00 | 0.00 | 45 | 1015.5 |
| 20260508005006 | 22 | 250 | 0.0 | 6.4 | 0.00 | 0.00 | 0.00 | 46 | 1015.6 |
| 20260508004506 | 22 | 240 | 1.6 | 6.4 | 0.00 | 0.00 | 0.00 | 44 | 1015.5 |
| 20260508004008 | 22 | 254 | 0.0 | 8.0 | 0.00 | 0.00 | 0.00 | 44 | 1015.5 |
| 20260508003505 | 22 | 255 | 1.6 | 8.0 | 0.00 | 0.00 | 0.00 | 45 | 1015.5 |
| 20260508003005 | 22 | 198 | 0.0 | 8.0 | 0.00 | 0.00 | 0.00 | 46 | 1015.5 |
| 20260508002504 | 22 | 255 | 1.6 | 6.4 | 0.00 | 0.00 | 0.00 | 44 | 1015.5 |
| 20260508002005 | 22 | 244 | 0.0 | 8.0 | 0.00 | 0.00 | 0.00 | 45 | 1015.6 |
| 20260508001503 | 23 | 255 | 1.6 | 8.0 | 0.00 | 0.00 | 0.00 | 43 | 1015.6 |
| 20260508001003 | 23 | 216 | 0.0 | 6.4 | 0.00 | 0.00 | 0.00 | 45 | 1015.7 |
| 20260508000501 | 23 | 285 | 1.6 | 8.0 | 0.00 | 0.00 | 0.00 | 43 | 1015.8 |
| 20260508000002 | 23 | 271 | 3.2 | 8.0 | 0.00 | 0.00 | 0.00 | 41 | 1015.8 |
| 20260507235502 | 23 | 242 | 0.0 | 8.0 | 0.00 | 0.00 | 0.00 | 45 | 1015.8 |
| 20260507235101 | 23 | 263 | 3.2 | 8.0 | 0.00 | 0.00 | 0.00 | 41 | 1015.7 |
| 20260507234600 | 23 | 213 | 3.2 | 8.0 | 0.00 | 0.00 | 0.00 | 40 | 1015.6 |
| 20260507234059 | 24 | 233 | 3.2 | 8.0 | 0.00 | 0.00 | 0.00 | 39 | 1015.6 |
| 20260507233558 | 24 | 265 | 1.6 | 6.4 | 0.00 | 0.00 | 0.00 | 41 | 1015.6 |
| 20260507233059 | 24 | 224 | 0.0 | 6.4 | 0.00 | 0.00 | 0.00 | 43 | 1015.6 |
| 20260507232558 | 23 | 276 | 1.6 | 9.7 | 0.00 | 0.00 | 0.00 | 40 | 1015.6 |
| 20260507232057 | 24 | 283 | 4.8 | 9.7 | 0.00 | 0.00 | 0.00 | 39 | 1015.5 |
| 20260507231608 | 25 | 242 | 1.6 | 8.0 | 0.00 | 0.00 | 0.00 | 42 | 1015.5 |
| 20260507231055 | 25 | 258 | 1.6 | 6.4 | 0.00 | 0.00 | 0.00 | 40 | 1015.5 |
| 20260507230555 | 24 | 246 | 0.0 | 8.0 | 0.00 | 0.00 | 0.00 | 44 | 1015.5 |
| 20260507230056 | 24 | 257 | 1.6 | 8.0 | 0.00 | 0.00 | 0.00 | 40 | 1015.5 |
| 20260507225553 | 24 | 250 | 1.6 | 9.7 | 0.00 | 0.00 | 0.00 | 41 | 1015.6 |
| 20260507225052 | 24 | 266 | 1.6 | 11.3 | 0.00 | 0.00 | 0.00 | 44 | 1015.6 |
| 20260507224603 | 24 | 238 | 0.0 | 11.3 | 0.00 | 0.00 | 0.00 | 40 | 1015.7 |
| 20260507224049 | 24 | 241 | 3.2 | 9.7 | 0.00 | 0.00 | 0.00 | 41 | 1015.8 |
| 20260507223548 | 24 | 244 | 1.6 | 12.9 | 0.00 | 0.00 | 0.00 | 41 | 1015.9 |
| 20260507223048 | 24 | 238 | 3.2 | 12.9 | 0.00 | 0.00 | 0.00 | 41 | 1016.0 |
| 20260507222549 | 24 | 214 | 1.6 | 11.3 | 0.00 | 0.00 | 0.00 | 43 | 1016.1 |
| 20260507222046 | 24 | 259 | 4.8 | 8.0 | 0.00 | 0.00 | 0.00 | 39 | 1016.2 |
| 20260507221546 | 24 | 248 | 0.0 | 6.4 | 0.00 | 0.00 | 0.00 | 39 | 1016.1 |
| 20260507221044 | 24 | 253 | 3.2 | 9.7 | 0.00 | 0.00 | 0.00 | 41 | 1016.2 |
| 20260507220545 | 25 | 274 | 3.2 | 9.7 | 0.00 | 0.00 | 0.00 | 40 | 1016.2 |
| 20260507220043 | 25 | 264 | 1.6 | 8.0 | 0.00 | 0.00 | 0.00 | 40 | 1016.3 |
| 20260507215545 | 25 | 243 | 1.6 | 8.0 | 0.00 | 0.00 | 0.00 | 41 | 1016.4 |
| 20260507215041 | 25 | 248 | 0.0 | 6.4 | 0.00 | 0.00 | 0.00 | 40 | 1016.4 |
| 20260507214540 | 24 | 267 | 1.6 | 8.0 | 0.00 | 0.00 | 0.00 | 42 | 1016.6 |
| 20260507214039 | 25 | 241 | 3.2 | 8.0 | 0.00 | 0.00 | 0.00 | 38 | 1016.6 |
| 20260507213538 | 25 | 243 | 1.6 | 6.4 | 0.00 | 0.00 | 0.00 | 46 | 1016.7 |
| 20260507213037 | 25 | 283 | 3.2 | 6.4 | 0.00 | 0.00 | 0.00 | 41 | 1016.7 |
| 20260507212539 | 24 | 246 | 1.6 | 6.4 | 0.00 | 0.00 | 0.00 | 40 | 1016.8 |
| 20260507212036 | 24 | 214 | 0.0 | 8.0 | 0.00 | 0.00 | 0.00 | 41 | 1016.9 |
| 20260507211540 | 24 | 207 | 1.6 | 8.0 | 0.00 | 0.00 | 0.00 | 46 | 1016.8 |
| 20260507211034 | 24 | 252 | 1.6 | 6.4 | 0.00 | 0.00 | 0.00 | 40 | 1016.9 |
| 20260507210534 | 24 | 222 | 1.6 | 6.4 | 0.00 | 0.00 | 0.00 | 40 | 1016.9 |
| 20260507210033 | 24 | 233 | 1.6 | 8.0 | 0.00 | 0.00 | 0.00 | 42 | 1017.0 |
| 20260507205534 | 24 | 288 | 1.6 | 6.4 | 0.00 | 0.00 | 0.00 | 41 | 1016.9 |
| 20260507205035 | 23 | 238 | 0.0 | 8.0 | 0.00 | 0.00 | 0.00 | 45 | 1016.9 |
| 20260507204530 | 24 | 261 | 1.6 | 8.0 | 0.00 | 0.00 | 0.00 | 41 | 1017.1 |
| 20260507204030 | 24 | 264 | 3.2 | 8.0 | 0.00 | 0.00 | 0.00 | 43 | 1017.1 |
| 20260507203528 | 23 | 262 | 1.6 | 6.4 | 0.00 | 0.00 | 0.00 | 42 | 1017.0 |
| 20260507203028 | 23 | 246 | 0.0 | 6.4 | 0.00 | 0.00 | 0.00 | 42 | 1017.2 |
| 20260507202526 | 23 | 227 | 1.6 | 8.0 | 0.00 | 0.00 | 0.00 | 45 | 1017.3 |
| 20260507202027 | 23 | 248 | 1.6 | 8.0 | 0.00 | 0.00 | 0.00 | 44 | 1017.4 |
| 20260507201525 | 23 | 308 | 0.0 | 9.7 | 0.00 | 0.00 | 0.00 | 43 | 1017.5 |
| 20260507201025 | 23 | 264 | 3.2 | 9.7 | 0.00 | 0.00 | 0.00 | 42 | 1017.5 |
| 20260507200523 | 23 | 252 | 0.0 | 9.7 | 0.00 | 0.00 | 0.00 | 45 | 1017.6 |
| 20260507200033 | 23 | 198 | 4.8 | 16.1 | 0.00 | 0.00 | 0.00 | 42 | 1017.6 |
| 20260507195524 | 23 | 257 | 3.2 | 16.1 | 0.00 | 0.00 | 0.00 | 41 | 1017.5 |
| 20260507195021 | 23 | 266 | 1.6 | 6.4 | 0.00 | 0.00 | 0.00 | 45 | 1017.6 |
| 20260507194520 | 23 | 255 | 0.0 | 11.3 | 0.00 | 0.00 | 0.00 | 45 | 1017.6 |
| 20260507194018 | 22 | 174 | 4.8 | 11.3 | 0.00 | 0.00 | 0.00 | 45 | 1017.7 |
| 20260507193521 | 22 | 188 | 3.2 | 8.0 | 0.00 | 0.00 | 0.00 | 44 | 1017.7 |
| 20260507193022 | 22 | 252 | 1.6 | 8.0 | 0.00 | 0.00 | 0.00 | 46 | 1017.7 |
| 20260507192515 | 22 | 221 | 1.6 | 8.0 | 0.00 | 0.00 | 0.00 | 48 | 1017.8 |
| 20260507192015 | 22 | 266 | 1.6 | 8.0 | 0.00 | 0.00 | 0.00 | 46 | 1018.0 |
| 20260507191515 | 22 | 257 | 1.6 | 12.9 | 0.00 | 0.00 | 0.00 | 49 | 1017.9 |
| 20260507191013 | 22 | 250 | 3.2 | 8.0 | 0.00 | 0.00 | 0.00 | 47 | 1018.1 |
| 20260507190515 | 22 | 268 | 1.6 | 6.4 | 0.00 | 0.00 | 0.00 | 46 | 1018.1 |
| 20260507190028 | 22 | 244 | 1.6 | 4.8 | 0.00 | 0.00 | 0.00 | 46 | 1018.2 |
| 20260507185511 | 21 | 218 | 1.6 | 4.8 | 0.00 | 0.00 | 0.00 | 45 | 1018.4 |
| 20260507185011 | 21 | 231 | 0.0 | 8.0 | 0.00 | 0.00 | 0.00 | 47 | 1018.3 |
| 20260507184510 | 21 | 241 | 1.6 | 9.7 | 0.00 | 0.00 | 0.00 | 46 | 1018.4 |
| 20260507184009 | 21 | 244 | 1.6 | 9.7 | 0.00 | 0.00 | 0.00 | 46 | 1018.5 |
| 20260507183508 | 21 | 207 | 1.6 | 4.8 | 0.00 | 0.00 | 0.00 | 50 | 1018.4 |
| 20260507183016 | 21 | 172 | 1.6 | 4.8 | 0.00 | 0.00 | 0.00 | 46 | 1018.4 |
| 20260507182506 | 21 | 299 | 0.0 | 6.4 | 0.00 | 0.00 | 0.00 | 49 | 1018.4 |
| 20260507182007 | 21 | 259 | 0.0 | 9.7 | 0.00 | 0.00 | 0.00 | 48 | 1018.4 |
| 20260507181506 | 21 | 276 | 1.6 | 9.7 | 0.00 | 0.00 | 0.00 | 49 | 1018.5 |
| 20260507181003 | 20 | 210 | 0.0 | 8.0 | 0.00 | 0.00 | 0.00 | 52 | 1018.6 |
| 20260507180504 | 20 | 222 | 1.6 | 8.0 | 0.00 | 0.00 | 0.00 | 48 | 1018.5 |
| 20260507180007 | 20 | 144 | 1.6 | 8.0 | 0.00 | 0.00 | 0.00 | 50 | 1018.6 |
| 20260507175506 | 20 | 241 | 3.2 | 8.0 | 0.00 | 0.00 | 0.00 | 48 | 1018.6 |
| 20260507175001 | 20 | 250 | 0.0 | 6.4 | 0.00 | 0.00 | 0.00 | 51 | 1018.5 |
| 20260507174502 | 20 | 253 | 0.0 | 6.4 | 0.00 | 0.00 | 0.00 | 53 | 1018.6 |
| 20260507174100 | 20 | 233 | 1.6 | 6.4 | 0.00 | 0.00 | 0.00 | 48 | 1018.6 |
| 20260507173559 | 20 | 209 | 0.0 | 6.4 | 0.00 | 0.00 | 0.00 | 49 | 1018.6 |
| 20260507173059 | 20 | 259 | 1.6 | 6.4 | 0.00 | 0.00 | 0.00 | 49 | 1018.7 |
| 20260507172559 | 20 | 166 | 1.6 | 6.4 | 0.00 | 0.00 | 0.00 | 50 | 1018.7 |
| 20260507172056 | 19 | 210 | 0.0 | 6.4 | 0.00 | 0.00 | 0.00 | 52 | 1018.6 |
| 20260507171602 | 18 | 243 | 0.0 | 8.0 | 0.00 | 0.00 | 0.00 | 51 | 1018.6 |
| 20260507171056 | 19 | 262 | 1.6 | 8.0 | 0.00 | 0.00 | 0.00 | 50 | 1018.7 |
| 20260507170557 | 19 | 242 | 0.0 | 6.4 | 0.00 | 0.00 | 0.00 | 51 | 1018.6 |
| 20260507170055 | 19 | 200 | 0.0 | 4.8 | 0.00 | 0.00 | 0.00 | 52 | 1018.6 |
| 20260507165552 | 18 | 350 | 0.0 | 6.4 | 0.00 | 0.00 | 0.00 | 51 | 1018.6 |
| 20260507165054 | 18 | 247 | 1.6 | 6.4 | 0.00 | 0.00 | 0.00 | 50 | 1018.7 |
| 20260507164555 | 18 | 265 | 0.0 | 4.8 | 0.00 | 0.00 | 0.00 | 51 | 1018.7 |
| 20260507164052 | 18 | 248 | 1.6 | 4.8 | 0.00 | 0.00 | 0.00 | 51 | 1018.8 |
| 20260507163550 | 18 | 212 | 0.0 | 3.2 | 0.00 | 0.00 | 0.00 | 56 | 1018.7 |
| 20260507163049 | 17 | 226 | 0.0 | 3.2 | 0.00 | 0.00 | 0.00 | 52 | 1018.8 |
| 20260507162548 | 17 | 243 | 0.0 | 6.4 | 0.00 | 0.00 | 0.00 | 55 | 1018.9 |
| 20260507162051 | 17 | 245 | 0.0 | 6.4 | 0.00 | 0.00 | 0.00 | 52 | 1018.9 |
| 20260507161547 | 17 | 254 | 0.0 | 3.2 | 0.00 | 0.00 | 0.00 | 53 | 1018.8 |
| 20260507161046 | 17 | 272 | 0.0 | 3.2 | 0.00 | 0.00 | 0.00 | 53 | 1018.7 |
| 20260507160547 | 17 | 243 | 0.0 | 3.2 | 0.00 | 0.00 | 0.00 | 54 | 1018.8 |
| 20260507160051 | 17 | 268 | 0.0 | 1.6 | 0.00 | 0.00 | 0.00 | 57 | 1018.8 |
| 20260507155542 | 16 | 212 | 0.0 | 3.2 | 0.00 | 0.00 | 0.00 | 56 | 1018.8 |
| 20260507155045 | 16 | 210 | 0.0 | 3.2 | 0.00 | 0.00 | 0.00 | 55 | 1018.9 |
| 20260507154542 | 16 | 257 | 0.0 | 3.2 | 0.00 | 0.00 | 0.00 | 56 | 1018.9 |
| 20260507154041 | 16 | 196 | 0.0 | 3.2 | 0.00 | 0.00 | 0.00 | 57 | 1018.9 |
| 20260507153541 | 16 | 257 | 0.0 | 3.2 | 0.00 | 0.00 | 0.00 | 56 | 1019.0 |
| 20260507153045 | 15 | 265 | 0.0 | 3.2 | 0.00 | 0.00 | 0.00 | 57 | 1019.0 |
| 20260507152536 | 15 | 245 | 0.0 | 3.2 | 0.00 | 0.00 | 0.00 | 56 | 1019.1 |
| 20260507152034 | 15 | 262 | 0.0 | 3.2 | 0.00 | 0.00 | 0.00 | 58 | 1018.9 |
| 20260507151534 | 15 | 245 | 0.0 | 1.6 | 0.00 | 0.00 | 0.00 | 58 | 1018.9 |
| 20260507151031 | 14 | 34 | 0.0 | 0.0 | 0.00 | 0.00 | 0.00 | 59 | 1018.9 |
| 20260507150533 | 14 | 35 | 0.0 | 0.0 | 0.00 | 0.00 | 0.00 | 61 | 1018.9 |
| 20260507150029 | 13 | 35 | 0.0 | 0.0 | 0.00 | 0.00 | 0.00 | 64 | 1019.0 |
| 20260507145532 | 13 | 35 | 0.0 | 1.6 | 0.00 | 0.00 | 0.00 | 63 | 1019.0 |
| 20260507145025 | 12 | 35 | 0.0 | 1.6 | 0.00 | 0.00 | 0.00 | 65 | 1019.0 |
| 20260507144525 | 12 | 35 | 0.0 | 1.6 | 0.00 | 0.00 | 0.00 | 67 | 1019.0 |
| 20260507144023 | 12 | 35 | 0.0 | 0.0 | 0.00 | 0.00 | 0.00 | 67 | 1019.1 |
| 20260507143525 | 11 | 35 | 0.0 | 1.6 | 0.00 | 0.00 | 0.00 | 68 | 1019.0 |
| 20260507143021 | 11 | 35 | 1.6 | 0.0 | 0.00 | 0.00 | 0.00 | 68 | 1019.0 |
| 20260507142520 | 11 | 35 | 0.0 | 3.2 | 0.00 | 0.00 | 0.00 | 68 | 1018.9 |
| 20260507142019 | 11 | 35 | 1.6 | 3.2 | 0.00 | 0.00 | 0.00 | 68 | 1018.9 |
| 20260507141518 | 11 | 35 | 1.6 | 3.2 | 0.00 | 0.00 | 0.00 | 68 | 1019.0 |
| 20260507141021 | 11 | 35 | 1.6 | 3.2 | 0.00 | 0.00 | 0.00 | 67 | 1018.9 |
| 20260507140518 | 11 | 35 | 1.6 | 3.2 | 0.00 | 0.00 | 0.00 | 66 | 1018.9 |
| 20260507140020 | 11 | 35 | 1.6 | 3.2 | 0.00 | 0.00 | 0.00 | 66 | 1018.7 |
| 20260507135518 | 11 | 35 | 1.6 | 3.2 | 0.00 | 0.00 | 0.00 | 66 | 1018.7 |
| 20260507135018 | 11 | 35 | 1.6 | 3.2 | 0.00 | 0.00 | 0.00 | 66 | 1018.7 |
| 20260507134520 | 11 | 35 | 3.2 | 3.2 | 0.00 | 0.00 | 0.00 | 66 | 1018.7 |
| 20260507134015 | 11 | 35 | 1.6 | 3.2 | 0.00 | 0.00 | 0.00 | 66 | 1018.7 |
| 20260507133516 | 11 | 35 | 1.6 | 3.2 | 0.00 | 0.00 | 0.00 | 66 | 1018.6 |
| 20260507133015 | 10 | 35 | 1.6 | 3.2 | 0.00 | 0.00 | 0.00 | 66 | 1018.7 |
| 20260507132515 | 10 | 35 | 3.2 | 3.2 | 0.00 | 0.00 | 0.00 | 67 | 1018.7 |
| 20260507132014 | 10 | 35 | 3.2 | 3.2 | 0.00 | 0.00 | 0.00 | 67 | 1018.7 |
| 20260507131514 | 10 | 35 | 3.2 | 3.2 | 0.00 | 0.00 | 0.00 | 67 | 1018.7 |
| 20260507131014 | 10 | 35 | 1.6 | 3.2 | 0.00 | 0.00 | 0.00 | 67 | 1018.7 |
| 20260507130515 | 10 | 35 | 3.2 | 3.2 | 0.00 | 0.00 | 0.00 | 66 | 1018.7 |
| 20260507130013 | 11 | 35 | 1.6 | 3.2 | 0.00 | 0.00 | 0.00 | 65 | 1018.7 |
| 20260507125517 | 11 | 35 | 1.6 | 3.2 | 0.00 | 0.00 | 0.00 | 66 | 1018.7 |
| 20260507125012 | 10 | 35 | 1.6 | 3.2 | 0.00 | 0.00 | 0.00 | 66 | 1018.7 |
| 20260507124512 | 10 | 35 | 3.2 | 3.2 | 0.00 | 0.00 | 0.00 | 66 | 1018.7 |
| 20260507124012 | 11 | 35 | 3.2 | 3.2 | 0.00 | 0.00 | 0.00 | 66 | 1018.7 |
| 20260507123512 | 11 | 35 | 1.6 | 3.2 | 0.00 | 0.00 | 0.00 | 66 | 1018.7 |
| 20260507123010 | 11 | 35 | 3.2 | 3.2 | 0.00 | 0.00 | 0.00 | 66 | 1018.7 |
| 20260507122510 | 11 | 35 | 3.2 | 3.2 | 0.00 | 0.00 | 0.00 | 66 | 1018.8 |
| 20260507122010 | 11 | 35 | 3.2 | 3.2 | 0.00 | 0.00 | 0.00 | 66 | 1018.8 |
| 20260507121509 | 11 | 35 | 3.2 | 3.2 | 0.00 | 0.00 | 0.00 | 66 | 1018.9 |
| 20260507121012 | 11 | 35 | 3.2 | 3.2 | 0.00 | 0.00 | 0.00 | 66 | 1018.9 |
| 20260507120508 | 11 | 35 | 3.2 | 3.2 | 0.00 | 0.00 | 0.00 | 66 | 1018.9 |
| 20260507120008 | 11 | 35 | 1.6 | 3.2 | 0.00 | 0.00 | 0.00 | 65 | 1018.9 |
| 20260507115508 | 11 | 35 | 1.6 | 3.2 | 0.00 | 0.00 | 0.00 | 66 | 1018.8 |
| 20260507115010 | 11 | 35 | 3.2 | 3.2 | 0.00 | 0.00 | 0.00 | 66 | 1018.9 |
| 20260507114509 | 11 | 35 | 3.2 | 3.2 | 0.00 | 0.00 | 0.00 | 65 | 1018.9 |
| 20260507114007 | 11 | 35 | 3.2 | 3.2 | 0.00 | 0.00 | 0.00 | 65 | 1018.9 |
| 20260507113507 | 11 | 35 | 1.6 | 3.2 | 0.00 | 0.00 | 0.00 | 65 | 1019.0 |
| 20260507113006 | 11 | 35 | 3.2 | 3.2 | 0.00 | 0.00 | 0.00 | 65 | 1018.9 |
| 20260507112505 | 11 | 35 | 3.2 | 3.2 | 0.00 | 0.00 | 0.00 | 65 | 1019.0 |
| 20260507112005 | 11 | 35 | 3.2 | 3.2 | 0.00 | 0.00 | 0.00 | 65 | 1019.0 |
| 20260507111509 | 11 | 35 | 3.2 | 3.2 | 0.00 | 0.00 | 0.00 | 65 | 1019.0 |
| 20260507111003 | 11 | 35 | 3.2 | 3.2 | 0.00 | 0.00 | 0.00 | 65 | 1019.1 |
| 20260507110505 | 11 | 35 | 3.2 | 3.2 | 0.00 | 0.00 | 0.00 | 65 | 1019.0 |
| 20260507110003 | 11 | 35 | 3.2 | 3.2 | 0.00 | 0.00 | 0.00 | 66 | 1019.0 |
| 20260507105503 | 11 | 35 | 3.2 | 3.2 | 0.00 | 0.00 | 0.00 | 66 | 1019.0 |
| 20260507105003 | 11 | 35 | 3.2 | 3.2 | 0.00 | 0.00 | 0.00 | 65 | 1019.0 |
| 20260507104502 | 11 | 35 | 3.2 | 3.2 | 0.00 | 0.00 | 0.00 | 64 | 1019.1 |
| 20260507104101 | 11 | 35 | 3.2 | 3.2 | 0.00 | 0.00 | 0.00 | 64 | 1019.1 |
| 20260507103559 | 11 | 35 | 1.6 | 3.2 | 0.00 | 0.00 | 0.00 | 64 | 1019.1 |
| 20260507103057 | 11 | 35 | 3.2 | 3.2 | 0.00 | 0.00 | 0.00 | 64 | 1019.2 |
| 20260507102559 | 11 | 35 | 3.2 | 3.2 | 0.00 | 0.00 | 0.00 | 65 | 1019.2 |
| 20260507102057 | 11 | 35 | 1.6 | 3.2 | 0.00 | 0.00 | 0.00 | 65 | 1019.2 |
| 20260507101557 | 11 | 35 | 3.2 | 3.2 | 0.00 | 0.00 | 0.00 | 66 | 1019.1 |
| 20260507101056 | 11 | 34 | 3.2 | 3.2 | 0.00 | 0.00 | 0.00 | 66 | 1019.4 |
| 20260507100556 | 11 | 34 | 3.2 | 3.2 | 0.00 | 0.00 | 0.00 | 65 | 1019.2 |
| 20260507100058 | 11 | 34 | 1.6 | 3.2 | 0.00 | 0.00 | 0.00 | 65 | 1019.3 |
| 20260507095556 | 11 | 34 | 1.6 | 3.2 | 0.00 | 0.00 | 0.00 | 66 | 1019.1 |
| 20260507095056 | 11 | 34 | 3.2 | 3.2 | 0.00 | 0.00 | 0.00 | 65 | 1019.3 |
| 20260507094556 | 11 | 34 | 1.6 | 3.2 | 0.00 | 0.00 | 0.00 | 66 | 1019.2 |
| 20260507094054 | 11 | 34 | 3.2 | 3.2 | 0.00 | 0.00 | 0.00 | 66 | 1019.3 |
| 20260507093554 | 11 | 34 | 3.2 | 3.2 | 0.00 | 0.00 | 0.00 | 67 | 1019.3 |
| 20260507093053 | 11 | 34 | 3.2 | 3.2 | 0.00 | 0.00 | 0.00 | 67 | 1019.4 |
| 20260507092553 | 11 | 34 | 3.2 | 3.2 | 0.00 | 0.00 | 0.00 | 66 | 1019.4 |
| 20260507092051 | 11 | 34 | 1.6 | 3.2 | 0.00 | 0.00 | 0.00 | 66 | 1019.5 |
| 20260507091552 | 11 | 34 | 3.2 | 3.2 | 0.00 | 0.00 | 0.00 | 66 | 1019.5 |
| 20260507091051 | 11 | 34 | 1.6 | 3.2 | 0.00 | 0.00 | 0.00 | 66 | 1019.6 |
| 20260507090550 | 11 | 34 | 3.2 | 3.2 | 0.00 | 0.00 | 0.00 | 67 | 1019.6 |
| 20260507090051 | 11 | 34 | 3.2 | 3.2 | 0.00 | 0.00 | 0.00 | 67 | 1019.6 |
| 20260507085553 | 11 | 34 | 3.2 | 3.2 | 0.00 | 0.00 | 0.00 | 67 | 1019.6 |
| 20260507085050 | 11 | 34 | 1.6 | 3.2 | 0.00 | 0.00 | 0.00 | 67 | 1019.7 |
| 20260507084554 | 11 | 34 | 3.2 | 3.2 | 0.00 | 0.00 | 0.00 | 67 | 1019.7 |
| 20260507084149 | 11 | 34 | 3.2 | 3.2 | 0.00 | 0.00 | 0.00 | 67 | 1019.7 |
| 20260507083548 | 11 | 34 | 1.6 | 3.2 | 0.00 | 0.00 | 0.00 | 66 | 1019.7 |
| 20260507083050 | 11 | 34 | 3.2 | 3.2 | 0.00 | 0.00 | 0.00 | 67 | 1019.9 |
| 20260507082546 | 11 | 34 | 3.2 | 3.2 | 0.00 | 0.00 | 0.00 | 67 | 1019.9 |
| 20260507082051 | 11 | 34 | 1.6 | 3.2 | 0.00 | 0.00 | 0.00 | 67 | 1019.9 |
| 20260507081546 | 11 | 34 | 3.2 | 3.2 | 0.00 | 0.00 | 0.00 | 68 | 1019.9 |
| 20260507081046 | 11 | 34 | 3.2 | 3.2 | 0.00 | 0.00 | 0.00 | 68 | 1019.9 |
| 20260507080545 | 11 | 34 | 3.2 | 3.2 | 0.00 | 0.00 | 0.00 | 67 | 1019.9 |
| 20260507080111 | 11 | 34 | 1.6 | 3.2 | 0.00 | 0.00 | 0.00 | 67 | 1019.9 |
| 20260507075548 | 11 | 34 | 3.2 | 3.2 | 0.00 | 0.00 | 0.00 | 67 | 1019.9 |
| 20260507075045 | 11 | 34 | 1.6 | 3.2 | 0.00 | 0.00 | 0.00 | 67 | 1019.8 |
| 20260507074547 | 11 | 34 | 1.6 | 3.2 | 0.00 | 0.00 | 0.00 | 66 | 1019.9 |
| 20260507074042 | 11 | 34 | 3.2 | 3.2 | 0.00 | 0.00 | 0.00 | 66 | 1019.8 |
| 20260507073541 | 11 | 34 | 1.6 | 3.2 | 0.00 | 0.00 | 0.00 | 66 | 1019.8 |
| 20260507073042 | 11 | 34 | 3.2 | 3.2 | 0.00 | 0.00 | 0.00 | 67 | 1019.9 |
| 20260507072540 | 11 | 34 | 3.2 | 3.2 | 0.00 | 0.00 | 0.00 | 67 | 1019.9 |
| 20260507072044 | 11 | 34 | 3.2 | 3.2 | 0.00 | 0.00 | 0.00 | 67 | 1020.0 |
| 20260507071556 | 11 | 34 | 3.2 | 3.2 | 0.00 | 0.00 | 0.00 | 68 | 1019.9 |
| 20260507071038 | 11 | 34 | 1.6 | 3.2 | 0.00 | 0.00 | 0.00 | 67 | 1020.0 |
| 20260507070537 | 11 | 34 | 3.2 | 3.2 | 0.00 | 0.00 | 0.00 | 67 | 1020.0 |
| 20260507070037 | 11 | 34 | 3.2 | 3.2 | 0.00 | 0.00 | 0.00 | 67 | 1020.1 |
| 20260507065535 | 11 | 34 | 3.2 | 3.2 | 0.00 | 0.00 | 0.00 | 66 | 1020.0 |
| 20260507065035 | 11 | 34 | 3.2 | 3.2 | 0.00 | 0.00 | 0.00 | 66 | 1020.0 |
| 20260507064535 | 11 | 34 | 1.6 | 3.2 | 0.00 | 0.00 | 0.00 | 66 | 1020.1 |
| 20260507064036 | 11 | 34 | 3.2 | 3.2 | 0.00 | 0.00 | 0.00 | 67 | 1020.0 |
| 20260507063535 | 11 | 34 | 3.2 | 3.2 | 0.00 | 0.00 | 0.00 | 68 | 1020.0 |
| 20260507063038 | 11 | 34 | 1.6 | 3.2 | 0.00 | 0.00 | 0.00 | 67 | 1020.0 |
| 20260507062535 | 11 | 33 | 3.2 | 3.2 | 0.00 | 0.00 | 0.00 | 66 | 1019.9 |
| 20260507062034 | 11 | 33 | 1.6 | 3.2 | 0.00 | 0.00 | 0.00 | 66 | 1019.9 |
| 20260507061536 | 11 | 33 | 3.2 | 3.2 | 0.00 | 0.00 | 0.00 | 67 | 1019.9 |
| 20260507061033 | 11 | 33 | 3.2 | 3.2 | 0.00 | 0.00 | 0.00 | 66 | 1019.8 |
| 20260507060533 | 11 | 33 | 1.6 | 3.2 | 0.00 | 0.00 | 0.00 | 66 | 1019.9 |
| 20260507060033 | 11 | 33 | 3.2 | 3.2 | 0.00 | 0.00 | 0.00 | 66 | 1019.9 |
| 20260507055533 | 11 | 33 | 1.6 | 3.2 | 0.00 | 0.00 | 0.00 | 67 | 1019.9 |
| 20260507055032 | 11 | 33 | 1.6 | 3.2 | 0.00 | 0.00 | 0.00 | 67 | 1019.9 |
| 20260507054532 | 11 | 33 | 3.2 | 3.2 | 0.00 | 0.00 | 0.00 | 67 | 1019.9 |
| 20260507054032 | 11 | 33 | 0.0 | 3.2 | 0.00 | 0.00 | 0.00 | 67 | 1019.9 |
| 20260507053533 | 11 | 33 | 1.6 | 3.2 | 0.00 | 0.00 | 0.00 | 67 | 1019.9 |
| 20260507053032 | 11 | 33 | 1.6 | 3.2 | 0.00 | 0.00 | 0.00 | 67 | 1019.9 |
| 20260507052534 | 12 | 33 | 1.6 | 3.2 | 0.00 | 0.00 | 0.00 | 66 | 1019.8 |
| 20260507052031 | 12 | 33 | 1.6 | 3.2 | 0.00 | 0.00 | 0.00 | 66 | 1019.8 |
| 20260507051531 | 12 | 33 | 1.6 | 3.2 | 0.00 | 0.00 | 0.00 | 66 | 1019.9 |
| 20260507051030 | 12 | 33 | 1.6 | 3.2 | 0.00 | 0.00 | 0.00 | 67 | 1019.8 |
| 20260507050530 | 12 | 33 | 1.6 | 3.2 | 0.00 | 0.00 | 0.00 | 66 | 1019.9 |
| 20260507050031 | 12 | 33 | 1.6 | 3.2 | 0.00 | 0.00 | 0.00 | 66 | 1019.9 |
| 20260507045530 | 12 | 33 | 1.6 | 3.2 | 0.00 | 0.00 | 0.00 | 66 | 1019.9 |
| 20260507045030 | 12 | 33 | 1.6 | 3.2 | 0.00 | 0.00 | 0.00 | 66 | 1019.9 |
| 20260507044533 | 12 | 33 | 1.6 | 3.2 | 0.00 | 0.00 | 0.00 | 67 | 1019.7 |